Theta_e
310 310 311 311 312 311 312 310 310 309 309 306 303 306 304 304 301 312 314 314 315 312 305 307 305 302 304 308 306 306 305 305 307 306 308 306 309 308 307 307 307 310 309 310 309 310 307 308 304 306 307 307 309 311 311 312 311 310 307 309 309 330 305 306 306 307 308 310 311 312 313 311 308 308 308 306 303 304 303 303 304 299 302 297 299 298 300
310 310 310 311 311 311 311 310 310 309 309 307 305 302 302 302 303 307 316 317 314 310 302 302 302 303 306 306 305 308 306 305 304 305 306 306 306 306 308 310 312 309 313 311 308 313 304 313 309 306 308 306 312 311 311 312 310 308 306 305 309 303 306 304 301 298 300 303 308 307 310 310 305 304 306 308 307 308 306 306 310 301 302 302 296 293 299
309 310 311 311 311 311 310 310 310 310 310 309 305 300 303 302 307 307 311 318 315 303 309 306 304 304 304 304 303 304 305 307 307 306 305 308 307 307 306 310 312 311 312 310 310 311 309 306 311 310 309 308 312 312 312 312 310 312 316 329 313 306 310 302 294 293 292 292 291 294 298 303 304 307 306 308 307 305 303 298 303 293 302 304 299 302 304
309 310 310 310 311 310 310 310 310 310 310 309 306 303 302 302 298 306 311 312 309 308 312 311 306 304 304 303 304 305 303 306 308 308 307 308 308 308 309 311 312 309 310 308 308 308 311 308 309 310 310 309 310 313 313 312 312 324 336 330 314 309 314 308 302 299 296 298 302 310 310 304 302 305 306 306 307 306 305 304 300 294 294 299 296 305 304
309 309 310 310 310 309 309 309 310 310 309 309 306 304 303 306 302 304 297 305 307 307 309 307 307 303 306 299 305 303 305 306 306 310 304 308 308 307 308 309 308 308 308 306 306 308 308 311 310 313 311 316 316 315 313 313 318 348 330 335 313 312 304 308 310 307 309 314 316 309 310 305 306 305 305 307 306 306 304 301 300 304 299 290 299 305 306
309 309 309 310 310 309 309 310 310 310 309 309 307 303 309 300 307 305 305 297 295 300 302 306 305 308 307 302 305 303 304 306 304 309 309 309 310 306 311 310 310 310 308 307 304 306 307 313 308 313 314 313 315 315 316 312 328 331 317 315 314 313 304 309 309 310 311 310 307 309 308 308 307 307 307 306 306 305 303 308 314 310 300 297 303 307 308
309 309 309 309 309 309 309 310 310 310 309 308 307 304 311 307 305 304 306 298 301 301 301 304 305 307 309 307 308 303 302 304 308 308 309 310 307 310 304 306 309 309 310 308 306 312 307 308 317 316 311 313 313 311 311 313 324 319 313 313 316 312 305 310 307 308 307 307 306 307 306 308 308 308 307 307 307 306 305 305 306 309 309 309 311 310 310
309 309 309 309 310 309 310 310 310 309 308 309 307 307 303 302 301 299 302 301 300 302 305 305 305 304 310 306 307 307 304 303 307 310 310 307 308 311 306 307 308 309 309 309 307 309 315 316 317 323 315 310 316 310 313 310 315 315 311 312 319 306 307 310 307 304 309 309 307 306 306 306 304 306 307 307 306 306 305 305 306 308 306 313 312 310 308
310 309 309 309 310 309 310 310 310 309 309 306 303 304 306 305 309 305 299 296 300 304 304 303 304 302 305 305 307 307 307 307 311 310 313 311 310 312 307 309 309 310 309 309 310 313 313 314 313 314 313 310 314 311 312 314 310 311 310 310 316 308 307 310 309 301 302 307 305 306 306 306 304 304 305 306 307 305 306 305 311 307 305 306 312 307 307
310 310 309 309 310 310 310 310 310 309 309 305 303 300 306 307 310 309 303 296 303 301 304 305 305 300 305 306 307 309 308 310 313 308 315 316 315 313 311 312 308 312 311 313 312 315 315 315 316 317 315 315 315 315 315 314 311 312 312 312 307 306 306 304 304 299 301 306 306 305 305 304 301 302 305 306 307 311 308 309 311 311 310 307 305 306 314
310 310 310 309 309 310 311 311 311 310 309 303 302 301 304 303 302 304 303 296 299 302 302 302 305 306 305 307 305 308 309 311 314 307 312 314 312 315 314 313 311 309 316 314 319 318 318 318 318 317 316 315 314 314 314 315 316 316 312 313 313 311 309 305 306 297 301 304 304 305 301 296 297 314 313 312 307 308 306 307 310 313 317 314 312 312 316
310 310 310 309 310 310 311 312 312 309 309 308 307 303 306 307 305 304 299 294 296 301 300 298 301 303 303 303 305 306 309 310 310 313 311 314 314 315 314 315 313 310 314 318 318 318 320 320 320 318 317 316 315 315 315 313 314 316 313 315 315 311 309 307 309 303 300 305 307 299 293 296 312 314 312 312 312 311 309 309 317 313 316 316 315 316 316
310 310 310 309 309 310 311 312 312 311 310 310 307 302 307 309 304 303 300 296 293 297 296 298 301 304 304 302 302 304 308 315 315 314 313 313 314 313 315 316 316 317 321 315 315 316 315 315 312 315 312 313 314 314 312 312 313 317 313 315 316 309 306 307 305 304 305 301 299 291 293 309 317 311 311 315 312 312 312 310 315 314 314 317 315 316 316
310 310 309 309 309 310 311 311 311 311 310 309 306 306 307 308 304 303 302 296 294 298 299 298 302 302 301 301 302 304 306 306 308 313 316 316 316 317 315 318 320 320 317 315 313 316 312 312 307 307 309 312 312 308 311 312 312 313 314 314 313 314 315 309 305 309 299 300 298 297 311 306 311 313 313 310 308 311 310 303 308 319 317 317 316 316 318
310 310 309 310 310 310 311 311 311 312 311 309 308 307 308 308 307 305 306 301 294 296 299 296 300 301 299 300 303 303 303 304 305 305 309 312 312 314 317 318 320 319 316 312 312 316 312 311 305 302 306 305 300 304 312 306 312 314 314 315 315 316 310 313 301 299 307 299 297 297 297 294 301 311 319 316 316 315 318 311 308 317 319 321 321 316 314
310 310 310 310 310 310 310 311 311 311 311 308 308 306 307 310 311 310 305 302 297 291 301 303 302 302 299 299 302 301 299 301 303 304 305 307 309 313 316 320 319 316 315 312 318 315 312 307 302 301 298 303 309 305 305 307 306 310 312 313 313 315 314 310 305 307 304 302 296 296 295 300 310 315 313 317 318 317 321 310 301 313 317 320 318 317 316
310 310 310 310 310 309 310 311 311 311 310 308 306 306 305 311 309 307 305 303 300 294 303 303 304 303 300 299 301 300 301 300 303 303 299 301 305 310 310 314 316 318 313 313 314 310 308 306 307 305 308 307 303 302 306 306 306 306 310 311 310 309 308 308 305 305 304 303 299 296 302 301 313 317 317 315 316 319 311 297 298 311 319 322 320 319 321
310 310 310 310 310 310 310 311 311 312 310 310 308 305 305 310 312 310 307 303 298 298 302 305 302 298 298 299 298 302 304 305 305 307 305 306 308 305 306 309 309 314 315 308 312 306 306 306 301 301 299 309 309 310 297 305 304 305 305 309 306 307 308 308 304 302 302 302 299 302 305 317 319 313 315 314 315 315 301 292 306 317 321 319 318 318 318
310 310 310 310 310 310 310 310 311 311 311 309 309 307 307 310 310 310 307 304 301 295 303 305 306 302 305 305 301 301 301 300 303 300 300 302 307 306 306 309 313 306 312 306 308 307 304 306 310 306 301 307 308 302 308 302 303 309 311 304 305 305 309 308 307 303 301 301 299 299 304 321 314 314 319 318 313 301 300 314 326 324 317 321 319 319 320
310 310 310 310 310 310 310 310 311 311 311 310 308 304 305 309 311 311 306 301 302 299 302 302 303 301 305 301 298 297 299 300 302 299 299 296 306 305 305 308 312 312 312 312 306 310 304 301 304 309 301 302 308 308 306 307 311 306 308 310 304 306 302 300 302 307 307 304 300 297 290 308 321 315 319 321 313 311 321 324 321 323 319 320 321 322 322
309 310 310 310 310 310 310 310 310 310 311 311 309 305 304 310 311 311 311 307 301 296 298 306 307 305 305 304 304 303 300 297 299 297 303 301 306 303 294 299 302 307 306 308 303 306 308 303 305 306 309 308 317 310 305 306 310 313 313 314 309 314 303 300 306 310 302 301 298 296 309 316 320 318 312 318 321 322 324 326 318 321 321 320 320 322 324
309 309 309 310 310 310 310 310 310 310 311 311 309 307 303 307 310 311 312 311 304 300 302 306 308 307 309 309 309 310 308 304 303 306 304 300 307 304 303 305 309 309 313 313 308 308 309 307 310 306 305 308 313 308 310 305 301 308 314 312 304 313 311 312 300 310 309 307 310 316 317 318 318 319 319 320 326 331 328 322 321 318 318 321 319 321 323
309 309 309 309 309 310 310 310 310 310 310 311 310 306 303 305 307 311 310 305 306 306 308 307 308 309 312 313 315 315 312 312 308 307 309 305 301 307 309 306 306 311 315 313 308 306 306 306 304 310 307 310 309 307 310 308 306 310 307 313 313 321 319 321 318 314 320 320 321 319 318 317 317 319 320 321 321 322 322 321 318 320 321 321 321 324 322
308 309 309 309 310 309 309 309 310 310 310 311 310 307 305 306 307 308 308 305 303 299 304 307 305 303 306 306 312 315 314 311 311 315 316 313 301 302 313 310 310 309 315 313 317 309 307 307 309 311 306 311 312 309 302 303 306 309 310 309 313 314 315 314 315 316 304 298 317 317 316 320 316 317 319 319 319 318 321 322 322 320 321 321 322 322 322
308 309 309 309 309 310 309 309 309 310 310 310 310 310 309 307 309 308 304 298 299 298 293 298 302 307 311 308 308 307 308 318 313 312 309 310 307 302 303 308 311 308 306 309 313 311 313 306 308 308 306 314 311 301 312 307 309 312 305 307 312 311 319 311 312 312 308 309 315 316 318 316 317 317 316 317 319 319 319 321 321 321 321 321 322 323 323
309 308 309 309 309 309 309 309 309 309 310 310 310 307 305 305 308 310 308 307 305 302 295 295 302 311 311 310 306 307 311 310 309 309 307 307 307 308 308 312 310 316 311 311 310 307 308 309 310 308 306 312 319 309 310 313 312 317 312 310 315 318 324 310 313 309 312 316 315 317 317 318 317 317 319 320 320 320 319 320 319 320 320 320 321 323 323
308 308 308 308 309 309 309 309 309 309 310 310 309 308 307 308 310 309 305 305 299 297 299 296 302 306 310 306 310 313 310 307 306 307 308 308 306 307 309 312 308 309 307 307 311 310 311 310 308 304 307 312 310 310 313 314 313 312 310 312 317 311 309 313 310 305 305 308 313 318 311 308 313 315 317 319 321 321 320 319 319 319 319 318 317 319 323
308 308 308 308 309 309 309 309 309 309 309 310 309 308 309 308 309 310 311 309 302 295 295 296 297 302 308 305 310 312 309 307 305 305 306 307 308 307 308 307 310 304 306 306 303 308 310 304 302 309 309 314 307 308 315 311 313 308 312 312 314 315 317 314 308 303 303 312 318 321 316 318 319 318 317 322 321 323 321 318 317 317 318 318 316 317 318
309 309 308 308 308 309 309 309 309 309 309 308 308 307 307 310 311 311 311 312 313 303 300 300 303 301 297 304 312 308 308 307 306 305 305 305 306 307 306 306 306 304 303 304 305 307 307 308 309 306 308 313 308 306 307 305 304 301 306 309 310 312 321 316 315 312 311 312 313 316 315 313 317 322 322 319 320 321 318 317 317 316 317 317 316 319 319
308 308 308 308 308 309 309 309 309 309 309 307 306 304 301 304 312 311 309 308 308 305 298 295 293 299 308 307 308 308 306 307 306 305 305 304 305 309 306 308 309 309 307 305 305 300 305 305 306 310 313 320 306 308 304 303 301 303 311 311 311 310 310 310 310 307 305 315 317 317 316 317 319 320 318 318 319 320 317 316 318 317 317 319 318 319 320
308 308 308 308 308 309 309 308 309 309 309 306 303 297 297 294 303 310 310 310 310 304 299 299 295 302 302 308 309 307 306 306 306 305 305 305 306 306 307 311 310 308 306 305 306 305 306 304 303 305 308 309 310 307 303 300 300 304 310 310 310 310 310 309 311 310 312 318 318 318 319 316 315 316 313 313 313 313 315 320 321 324 323 325 319 317 316
308 308 308 308 308 308 308 309 309 308 307 304 300 299 301 303 307 308 309 309 309 303 299 296 297 299 300 305 308 309 306 306 307 306 308 308 306 306 308 305 304 305 306 305 305 304 306 308 303 303 305 309 310 302 302 301 300 304 308 309 310 311 311 311 312 313 314 316 312 313 311 311 313 310 310 314 314 317 318 318 319 319 324 320 316 315 315
308 308 308 308 308 308 308 309 309 308 305 306 308 307 306 306 306 307 308 309 307 302 304 298 294 298 296 302 305 305 305 304 303 304 304 308 306 306 305 305 304 303 312 307 302 300 307 304 310 301 306 315 309 304 301 298 301 303 303 308 309 309 309 311 309 313 313 313 312 307 307 309 309 315 318 318 317 316 316 316 315 315 314 313 314 314 315
307 308 308 308 308 308 308 308 309 308 308 306 302 303 308 309 308 306 308 310 303 304 303 297 294 295 297 307 301 301 304 301 302 304 302 306 310 305 306 303 305 302 303 302 305 305 308 307 307 306 305 307 311 306 296 301 303 302 303 305 311 309 310 311 309 311 312 313 313 311 313 313 316 316 317 313 313 316 318 316 314 313 312 312 313 313 314
307 307 307 308 308 308 308 308 305 304 300 302 304 308 307 306 309 310 311 306 297 297 296 297 298 292 294 298 299 301 304 301 302 304 303 306 315 304 307 306 304 300 304 306 305 305 306 306 307 304 304 303 303 298 302 301 301 303 309 304 310 314 309 307 308 311 312 313 312 312 312 310 310 313 316 316 316 316 315 314 314 313 312 312 313 313 313
307 307 307 308 308 308 306 306 305 302 300 300 304 313 312 313 312 312 312 312 304 297 297 298 300 295 297 293 295 305 305 301 304 307 308 309 306 305 304 307 301 302 311 300 301 303 300 311 304 301 304 300 299 300 302 303 307 306 305 306 309 308 308 309 310 311 313 313 313 313 314 314 314 313 313 314 314 314 313 313 313 314 313 312 313 313 313
307 307 308 307 306 303 300 300 306 304 302 308 313 311 312 309 308 310 309 306 309 309 299 298 295 296 299 298 302 309 300 297 307 305 307 301 304 302 303 309 302 308 306 304 304 303 305 311 303 302 302 299 309 311 306 307 306 308 309 311 312 313 313 313 315 313 312 312 312 312 312 310 311 312 312 312 312 312 312 311 313 313 312 312 312 314 314
307 307 305 302 300 296 297 300 303 309 315 314 313 307 306 304 299 302 303 299 303 304 300 299 294 298 304 300 296 308 302 303 305 302 304 306 304 304 303 304 305 307 298 301 302 312 309 307 305 300 302 308 313 306 308 311 311 312 312 312 313 313 313 313 313 311 310 309 309 309 309 310 310 310 309 309 310 309 309 311 313 314 315 315 314 315 315
305 304 302 301 298 296 297 304 312 313 310 310 308 301 301 304 301 297 297 300 302 296 300 298 295 300 300 298 301 308 304 302 300 305 300 304 301 300 306 300 305 305 293 300 303 306 301 302 305 301 300 306 307 309 311 312 313 313 313 313 314 314 314 313 313 311 311 310 311 312 310 308 308 308 310 309 309 309 309 309 309 311 312 313 314 316 314
303 299 297 297 296 299 308 310 312 308 307 300 302 299 295 302 294 291 300 294 293 299 299 293 298 299 300 299 299 302 307 301 297 297 301 305 307 301 303 305 305 301 293 297 303 307 302 298 300 300 300 304 306 311 312 312 311 312 313 313 314 314 314 313 314 313 313 312 312 312 312 311 312 311 310 311 311 310 310 310 310 310 311 311 315 316 314
301 300 299 297 302 305 307 311 310 306 300 298 299 298 296 290 297 299 298 293 292 296 300 298 301 300 301 302 302 303 310 312 312 310 307 303 310 309 303 301 306 297 296 297 306 308 306 302 299 299 300 306 307 310 312 312 312 313 313 314 315 314 314 314 314 314 312 314 316 315 316 315 313 312 313 312 312 312 312 312 312 313 312 312 313 314 316
304 303 305 306 306 307 308 305 304 299 298 302 292 287 291 294 301 298 298 290 291 298 297 300 296 299 300 300 302 308 309 313 310 308 306 300 306 303 301 304 305 298 294 303 308 306 303 298 297 298 305 308 309 311 310 310 312 312 313 314 315 314 314 313 313 313 313 312 312 314 316 314 312 312 313 312 312 312 311 312 313 313 314 314 316 315 315
306 306 308 305 304 302 303 293 299 298 287 287 286 284 290 287 291 290 293 300 301 299 300 302 306 306 303 305 302 305 306 310 306 307 304 301 308 307 302 297 299 291 300 308 304 299 297 296 297 300 307 307 308 309 310 311 311 312 313 313 314 314 314 313 313 312 313 313 313 312 312 312 312 313 313 313 312 311 312 313 314 315 316 316 317 319 319
306 304 301 301 296 298 299 285 296 293 287 288 285 282 287 286 290 292 291 294 300 299 303 299 302 299 296 304 304 307 308 310 309 307 305 307 301 299 298 292 297 302 306 301 300 295 297 300 301 304 306 307 308 309 310 310 311 311 312 312 313 313 312 312 312 312 312 313 313 313 313 312 312 313 313 313 313 313 313 313 316 316 316 317 319 318 318
299 295 294 292 289 294 290 283 292 289 283 287 289 288 290 288 291 292 292 302 302 300 303 302 306 303 300 304 309 308 306 303 307 303 298 303 299 301 297 294 301 303 298 294 296 297 299 297 303 305 305 306 307 308 310 311 311 311 311 311 312 312 312 311 311 311 311 311 311 312 311 312 312 312 313 314 314 314 313 313 315 316 316 318 318 317 317
295 291 290 286 284 287 288 285 287 285 291 293 291 292 292 294 295 298 301 303 302 305 302 305 304 304 301 307 301 302 309 307 302 302 303 303 296 292 302 308 304 295 295 295 293 293 294 299 302 304 305 307 308 309 310 311 311 312 311 310 311 311 311 311 311 311 311 311 312 312 311 312 311 312 312 313 313 314 315 315 316 316 318 317 317 316 318
294 297 292 290 286 288 294 286 287 289 293 295 296 297 298 298 299 302 302 303 301 302 304 304 304 305 306 303 304 303 306 306 300 304 303 296 295 300 303 297 291 295 291 292 293 295 298 301 304 305 307 308 308 309 310 311 311 312 312 312 312 311 312 311 311 311 311 312 311 311 312 312 312 313 313 313 314 315 316 316 317 319 319 318 318 321 321
289 296 293 285 283 288 286 290 296 296 297 296 297 298 299 301 300 299 303 304 304 304 303 304 303 305 303 309 307 300 301 302 298 299 303 298 299 295 287 293 293 296 297 295 295 299 301 303 305 307 308 309 309 310 311 311 312 312 312 312 311 311 311 311 311 312 313 312 312 312 312 313 313 313 313 313 313 314 316 318 319 320 320 319 319 318 319
298 291 288 288 291 291 292 295 294 292 295 297 298 298 299 298 301 301 304 306 304 303 304 304 303 304 299 303 301 297 293 301 292 290 299 298 290 287 289 285 292 291 297 300 299 301 303 306 308 309 310 310 311 311 311 312 313 313 312 312 312 313 312 312 313 313 314 313 314 314 314 315 315 314 313 314 313 315 318 319 319 319 319 319 318 318 316
292 291 294 290 291 293 296 296 294 292 295 297 299 301 301 299 299 301 307 306 307 309 307 306 305 299 299 301 291 294 292 300 299 293 295 292 293 296 293 290 293 294 296 301 302 304 307 308 309 309 310 310 311 311 312 313 314 314 314 314 315 315 315 314 314 314 314 314 314 314 315 315 314 314 314 314 315 317 316 317 318 318 319 319 319 317 317
297 293 293 299 293 291 294 290 290 290 292 295 298 298 300 299 300 301 306 305 308 305 303 300 298 295 291 290 288 285 287 302 298 295 295 293 298 297 293 293 296 300 302 306 307 308 308 309 309 309 311 312 312 312 313 315 316 315 314 314 315 315 315 316 316 315 315 315 315 316 315 315 315 316 316 317 317 316 315 317 319 318 319 318 318 318 318
291 288 290 295 298 299 298 297 298 297 296 297 298 299 302 299 302 306 309 308 304 299 296 303 299 292 288 287 291 299 303 296 292 296 292 297 300 296 296 298 301 303 304 304 306 308 310 311 312 312 311 311 312 313 314 315 315 315 315 315 315 316 316 315 315 315 316 316 316 315 315 316 317 317 318 317 316 315 312 313 317 319 319 319 319 320 319
Wind_Speed
20 21 21 20 20 20 21 21 22 22 24 16 12 10 5 5 10 17 18 14 9 6 6 5 6 9 9 11 17 15 14 13 11 13 13 14 13 13 13 13 14 13 11 9 7 6 3 4 11 9 14 13 18 12 24 16 18 13 9 12 13 8 5 4 3 5 10 11 11 18 16 11 9 7 4 5 8 4 2 2 6 3 1 3 1 2 3
20 20 21 20 19 19 20 21 21 21 19 12 12 7 5 7 9 10 7 6 5 9 8 6 8 8 12 15 16 13 14 14 14 14 15 12 10 12 10 11 15 12 7 7 9 3 4 2 6 11 8 9 19 16 23 21 14 15 6 9 9 8 5 3 2 4 3 8 3 12 13 11 5 2 8 11 9 11 6 2 3 4 5 6 6 4 3
20 20 20 18 18 19 20 21 21 20 18 12 8 6 6 8 7 9 9 6 2 7 7 8 8 9 12 13 15 15 13 11 16 15 15 14 15 12 11 12 8 7 5 10 9 6 4 6 11 10 10 7 18 19 20 22 14 16 11 15 9 11 4 6 4 6 9 9 6 5 9 10 6 5 5 4 8 9 6 6 1 4 5 6 3 2 5
19 20 19 18 18 19 20 21 21 21 19 14 7 5 5 3 6 5 4 3 5 7 8 11 9 9 11 12 12 15 15 13 14 17 18 18 19 18 15 12 11 13 14 11 7 9 7 8 5 4 8 7 5 13 19 20 17 20 20 20 9 4 4 4 8 8 8 9 5 5 5 6 7 9 10 9 6 4 6 3 1 5 3 6 5 14 7
19 19 19 18 18 18 20 21 22 23 22 15 6 5 5 5 4 6 7 9 3 6 7 11 11 11 9 8 8 14 16 14 12 15 11 13 16 14 14 6 8 8 11 11 11 9 10 5 6 6 6 10 10 13 16 15 22 10 13 17 9 2 5 7 5 8 8 3 2 6 14 6 8 10 13 12 10 7 6 8 10 7 7 7 3 16 12
19 20 21 19 18 18 20 21 23 24 25 23 3 4 4 3 3 8 6 4 5 9 9 11 13 16 13 12 13 16 17 14 10 7 11 14 13 9 2 9 13 15 15 12 11 7 8 3 4 8 8 10 16 13 14 13 15 20 6 2 2 3 3 8 11 9 8 7 7 3 6 9 5 6 11 17 16 13 10 5 4 8 7 8 7 18 14
18 20 21 21 18 18 19 21 22 24 26 24 3 4 4 6 6 5 10 6 6 8 14 20 18 17 14 7 12 16 17 17 13 9 6 12 9 3 6 12 14 14 14 11 8 4 4 2 4 3 6 7 5 7 15 10 13 12 2 8 2 1 3 3 7 7 10 10 7 3 6 5 11 13 7 10 17 16 15 11 6 8 5 8 8 11 14
18 19 20 20 18 17 18 20 21 23 28 18 5 3 6 6 8 7 8 8 11 11 10 12 14 11 12 9 11 12 15 17 14 12 3 4 14 7 12 14 16 14 16 12 6 6 2 3 0 1 3 6 1 4 3 4 7 12 11 6 1 4 2 5 3 1 1 2 4 6 9 8 5 3 5 5 3 4 5 6 10 11 7 4 10 9 11
18 18 19 19 17 17 17 18 20 21 23 8 8 6 7 7 6 6 9 11 6 9 9 10 12 9 9 8 11 13 10 10 7 7 2 3 4 12 16 14 13 15 15 15 8 11 9 9 11 7 6 3 3 3 7 13 6 6 8 7 2 6 1 1 2 1 2 2 4 10 14 11 8 8 9 7 7 7 5 6 2 4 7 9 6 7 7
17 18 19 19 17 16 17 17 18 18 19 7 7 5 8 8 7 9 6 8 7 9 9 11 10 8 8 13 14 11 11 14 9 7 4 9 9 11 14 16 6 4 10 7 8 11 11 8 8 3 4 4 7 5 11 11 5 3 5 2 6 5 3 2 3 2 1 1 7 10 11 15 14 14 12 9 5 3 5 4 8 7 6 9 9 8 6
17 17 18 16 17 17 17 16 16 17 12 10 8 7 9 8 10 9 6 8 6 5 8 8 8 8 17 18 19 17 12 9 6 5 5 9 13 15 16 12 11 3 3 5 10 8 8 6 5 4 4 6 7 9 13 16 5 6 5 4 2 4 3 2 2 1 1 3 8 10 5 3 3 1 2 4 4 7 6 4 6 9 7 2 3 7 5
17 17 18 17 16 16 16 16 14 14 12 10 8 9 8 8 8 7 6 7 7 7 6 6 9 13 18 18 16 15 8 8 6 3 6 10 15 15 12 7 8 3 9 12 10 9 9 5 5 5 6 8 9 13 17 13 6 3 4 1 1 4 5 2 2 2 0 4 5 4 7 3 1 2 5 4 8 7 5 9 2 9 9 10 12 8 9
17 16 16 17 16 15 16 16 14 13 12 10 9 9 10 9 7 6 4 5 8 8 8 9 15 15 16 18 18 18 13 2 3 11 10 11 6 13 7 2 4 5 9 10 13 10 5 2 4 4 7 8 8 10 14 16 5 1 5 4 3 1 1 3 1 3 2 1 1 0 2 2 1 6 5 4 5 4 6 5 3 6 7 6 4 5 8
16 16 16 16 16 16 16 17 14 13 13 10 10 9 9 9 7 6 3 4 7 7 9 12 11 14 18 18 15 15 13 16 13 7 4 15 6 14 8 3 2 5 7 8 8 5 4 3 3 4 4 2 3 4 7 11 7 5 6 2 6 2 2 2 0 2 3 1 2 5 2 7 2 1 2 3 2 3 3 0 2 0 1 5 5 5 5
15 15 16 16 17 16 15 16 15 14 14 12 9 9 8 8 7 7 3 3 9 11 8 4 10 15 16 14 15 11 9 9 11 11 14 14 15 9 2 7 7 2 5 7 4 3 2 2 1 1 2 2 0 2 1 5 3 4 4 4 4 4 1 6 3 3 1 3 2 3 2 5 2 3 3 3 3 5 1 3 3 4 7 3 7 6 4
15 15 16 15 16 16 15 17 15 13 13 13 9 8 10 8 7 7 5 3 5 7 1 6 14 14 11 10 13 11 8 7 7 9 8 9 11 17 7 4 9 5 3 5 2 2 3 2 3 2 2 2 1 2 2 2 4 4 7 6 9 5 7 9 4 1 1 0 1 1 1 2 1 3 4 3 1 3 1 2 4 3 4 5 2 3 6
16 16 15 16 15 15 15 16 15 14 13 12 10 9 9 8 5 6 7 5 4 10 13 17 13 12 7 8 11 9 9 6 8 6 8 10 14 10 14 15 10 1 3 3 2 1 2 3 3 3 2 3 3 3 3 2 2 3 3 5 8 8 4 4 4 3 3 1 2 4 2 2 2 0 2 2 3 1 5 4 4 5 6 2 5 7 5
16 15 16 15 15 16 16 15 17 15 14 13 9 9 10 10 6 7 6 5 6 10 9 8 13 9 6 6 7 9 7 7 8 6 3 9 6 11 14 11 9 10 6 4 2 3 3 2 4 3 4 3 4 1 5 2 2 1 2 2 4 4 5 1 4 5 8 11 5 2 2 1 2 6 6 7 7 1 5 5 2 5 5 8 9 10 9
14 15 15 15 15 15 14 15 16 16 15 13 10 10 7 7 10 8 6 7 5 8 12 16 13 11 8 8 6 6 6 9 6 5 8 6 3 15 17 11 6 5 6 4 5 2 2 3 2 2 2 2 3 2 2 2 2 1 2 2 1 1 2 1 2 2 2 1 5 4 1 1 4 4 8 6 3 1 2 1 2 4 9 6 11 13 10
14 14 14 14 14 14 13 14 15 14 15 13 9 8 10 12 9 8 8 8 5 8 12 13 10 11 8 9 7 6 8 7 4 5 4 5 7 14 10 5 7 6 7 8 2 1 2 3 3 1 4 3 1 4 3 1 0 3 2 2 3 1 2 2 2 0 2 3 2 0 4 5 3 5 6 6 4 5 3 2 6 7 6 10 10 11 9
13 13 14 13 12 12 12 13 13 13 15 13 10 8 9 6 8 10 9 7 5 8 9 6 7 12 12 11 10 9 7 6 6 5 2 4 5 4 2 3 7 5 4 4 4 5 4 4 4 2 0 1 2 3 2 1 3 8 6 2 5 8 4 3 1 2 5 2 2 0 4 10 3 2 4 2 2 1 3 3 3 6 7 7 8 9 7
13 13 13 12 12 12 11 11 12 13 14 13 11 7 8 7 9 9 11 8 5 7 9 16 15 15 16 14 12 10 8 7 8 3 3 4 2 2 3 5 4 3 2 2 3 4 4 3 3 4 4 2 1 2 2 3 3 4 5 4 4 7 2 2 2 5 1 2 3 4 4 8 4 5 4 6 3 1 3 6 4 4 4 5 8 7 7
13 13 12 12 12 11 10 11 11 12 13 13 10 6 8 9 9 10 10 7 6 8 9 11 11 12 13 14 12 8 5 2 3 3 3 2 3 2 2 3 3 4 2 3 2 3 5 5 4 4 4 2 2 2 3 3 2 3 5 4 5 6 6 3 0 3 3 5 8 0 3 6 11 10 8 8 9 9 8 8 9 7 6 9 7 7 8
12 12 12 12 11 11 11 11 11 12 12 12 10 7 8 7 10 9 7 6 4 8 8 5 5 5 4 4 7 10 8 9 7 1 2 1 2 3 1 3 2 4 1 3 2 2 4 5 4 3 2 3 1 1 1 3 2 2 2 1 1 7 9 7 5 6 5 5 12 7 4 3 9 8 10 11 8 8 7 7 8 7 8 8 7 7 7
12 11 11 11 11 11 11 10 11 12 11 12 11 8 8 7 5 6 8 8 5 5 6 7 7 11 8 5 1 3 6 0 2 3 4 3 3 2 2 3 3 2 6 7 4 4 3 4 4 3 2 2 3 1 3 3 1 0 2 1 0 3 3 6 4 4 6 7 5 5 6 7 6 7 7 7 8 8 9 7 7 7 7 6 7 8 8
11 12 11 11 11 11 11 11 11 11 11 12 10 7 7 8 7 7 7 6 4 4 4 5 6 8 6 8 5 1 5 3 5 5 5 6 6 5 3 3 4 3 4 5 5 5 4 4 3 4 3 3 2 1 1 0 3 1 0 2 1 3 1 4 2 2 3 4 7 7 6 10 8 8 8 6 6 5 8 9 9 9 10 9 8 8 7
11 11 11 11 11 11 11 11 11 11 12 11 7 6 7 8 7 6 6 6 7 3 4 5 7 11 11 16 13 10 6 3 4 5 6 7 7 4 3 2 4 4 5 5 4 5 3 3 3 5 4 1 3 2 1 1 1 2 1 2 2 3 7 7 3 5 2 1 3 2 1 2 5 7 6 6 7 7 6 6 8 8 8 8 8 7 7
10 10 10 11 11 11 11 10 10 11 10 11 9 7 7 7 9 7 6 7 4 5 7 7 8 11 14 15 14 11 5 5 5 6 7 7 7 4 2 3 3 3 3 3 4 3 2 4 4 4 2 2 3 2 1 3 1 1 2 1 3 3 4 5 5 7 5 3 2 2 7 2 2 2 5 4 4 3 4 7 8 8 7 8 8 7 7
10 10 10 10 11 11 10 10 11 11 12 10 7 8 7 8 8 8 8 5 1 2 5 8 8 7 5 6 5 6 6 4 5 6 5 6 6 4 4 4 3 2 3 4 4 4 3 4 5 4 1 2 1 3 3 1 2 0 6 10 10 5 2 4 7 8 7 6 3 5 3 4 3 3 4 5 8 6 6 8 7 6 6 6 6 5 5
10 9 9 10 11 11 10 10 10 11 11 7 6 5 6 1 2 2 6 6 5 2 3 5 5 4 7 7 7 7 8 8 5 5 6 5 4 2 4 3 3 3 2 2 2 3 3 3 4 3 1 3 2 3 1 2 3 5 7 12 12 11 12 10 7 6 3 1 2 3 6 4 2 0 5 6 6 7 7 7 6 6 5 4 5 5 5
9 9 9 11 11 10 10 10 9 10 9 5 4 4 3 5 1 3 8 7 7 4 3 3 7 8 8 6 7 7 6 6 6 6 7 6 4 4 3 3 3 3 2 2 2 3 2 2 4 4 3 4 3 2 2 3 3 2 3 8 9 10 8 8 7 5 3 0 1 1 1 5 6 4 7 7 6 6 4 3 4 5 5 4 4 5 5
9 9 10 10 10 10 10 10 10 9 5 6 6 3 3 2 2 8 9 6 5 3 3 5 5 3 3 5 5 4 7 7 6 5 3 4 4 4 3 4 3 5 3 2 1 2 2 3 3 4 2 4 4 2 3 3 0 3 4 8 6 7 6 4 5 4 3 1 2 1 5 6 5 6 2 3 3 2 2 3 4 4 5 5 6 7 7
9 9 10 9 11 11 10 9 10 7 6 9 14 18 19 21 20 17 8 4 2 4 3 3 4 4 4 3 1 6 4 2 4 4 4 4 3 3 3 5 3 3 4 1 1 1 1 2 1 3 2 2 1 1 2 3 2 4 4 5 8 8 6 4 4 3 4 6 8 7 3 4 4 3 2 3 4 4 5 6 7 6 7 9 9 8 8
9 9 9 9 10 10 10 10 11 12 11 7 6 5 5 11 12 15 6 3 3 3 2 3 3 4 6 5 6 3 5 4 3 3 3 3 2 3 2 4 4 2 3 2 2 1 2 1 2 1 3 0 2 1 1 2 6 4 3 1 8 8 6 4 4 5 7 6 6 5 4 4 4 4 6 7 7 6 6 6 8 8 8 7 7 8 8
8 8 7 9 9 10 11 11 6 4 5 7 7 4 3 0 2 4 6 2 2 3 3 3 3 3 4 4 4 2 5 5 3 4 2 2 1 2 3 2 2 0 2 2 2 2 2 2 2 1 0 4 2 0 2 2 5 4 1 3 5 2 5 10 7 8 7 6 5 6 6 7 7 8 6 5 6 7 7 7 6 5 5 5 6 8 8
6 6 7 8 10 9 7 8 6 4 5 6 4 4 5 2 2 2 4 3 2 3 3 3 2 5 4 5 3 1 3 4 4 1 2 1 2 2 3 2 1 3 2 2 2 3 2 0 1 0 3 2 1 4 4 5 1 5 5 8 6 7 7 9 8 9 7 7 10 11 10 8 9 8 7 7 7 6 6 6 5 4 6 6 6 6 6
5 5 6 7 5 4 5 5 3 6 5 2 2 3 3 1 2 2 3 3 3 2 4 4 4 5 3 4 4 1 3 2 1 1 2 1 2 2 2 0 2 1 1 2 2 2 1 0 1 1 0 0 1 2 5 8 13 13 13 12 12 12 11 10 10 9 9 10 12 9 8 8 7 6 5 6 6 6 6 6 6 6 6 6 5 5 7
3 2 3 4 4 4 3 3 2 3 3 4 3 4 2 2 3 3 4 4 4 5 4 4 6 5 2 2 4 1 1 1 1 1 0 1 1 1 2 2 1 1 1 2 2 1 2 0 1 1 1 0 0 4 12 14 12 11 12 12 12 11 11 11 10 10 9 7 7 6 6 6 6 5 6 7 6 8 7 7 7 6 5 5 7 7 8
2 2 3 3 3 3 2 3 3 7 6 3 3 2 2 3 2 2 4 3 3 4 4 4 5 3 3 4 5 1 3 2 4 1 1 1 1 1 1 1 1 0 0 1 2 3 1 1 2 2 2 4 7 9 13 12 13 12 10 10 10 10 8 8 8 7 6 4 3 4 4 4 5 5 5 6 6 6 6 7 7 7 7 7 6 6 8
3 4 2 2 4 5 3 3 2 2 2 3 3 3 2 2 2 2 3 2 2 3 3 5 5 4 7 5 4 2 4 4 4 3 2 1 1 1 1 1 0 0 1 1 0 2 1 1 3 2 6 6 7 10 12 14 12 10 9 8 9 9 8 8 6 6 5 5 4 4 4 5 5 5 5 6 6 7 7 6 5 6 6 7 7 7 6
3 3 4 3 4 4 4 6 4 2 2 3 2 3 2 1 3 2 1 3 2 2 3 4 2 2 3 5 4 1 2 2 1 2 2 1 1 1 1 1 0 1 1 2 1 1 0 1 5 7 7 8 10 10 12 12 11 10 9 8 7 7 6 6 6 5 5 3 1 1 1 3 4 4 6 7 7 6 6 9 9 8 8 7 6 5 6
1 2 2 2 5 5 4 2 2 2 1 1 2 1 1 3 1 2 2 2 4 2 4 2 4 3 2 1 4 1 1 1 2 1 2 1 2 2 2 1 0 1 1 0 2 1 1 1 4 3 4 6 10 10 11 11 9 9 10 9 8 8 8 6 6 5 5 6 4 3 3 3 4 4 5 6 5 5 7 8 9 9 9 7 8 8 8
8 7 2 2 2 2 1 1 1 1 0 1 1 2 2 1 2 2 2 2 3 3 3 4 2 2 1 3 3 3 1 1 2 1 1 1 1 0 1 1 1 0 1 1 0 1 1 5 5 5 4 6 10 11 10 10 10 9 9 9 9 9 10 11 11 10 8 7 7 7 6 6 4 5 8 8 9 9 8 7 7 6 7 9 9 10 11
5 3 2 2 1 1 1 1 0 1 1 0 1 0 2 2 2 2 3 2 1 3 1 3 1 2 3 3 3 0 1 1 1 1 2 1 0 0 1 0 2 1 0 1 0 2 6 4 6 6 7 8 9 10 10 9 9 8 8 9 9 8 8 8 8 10 10 9 7 7 7 6 6 7 7 7 7 8 10 9 7 9 9 8 8 9 9
1 1 0 0 1 0 0 1 2 0 2 2 2 4 3 2 3 3 3 1 4 4 2 3 1 0 5 3 1 1 0 0 1 1 1 0 2 1 1 2 2 2 1 2 2 3 6 6 7 7 9 9 8 8 8 7 8 7 8 9 9 10 10 10 9 8 8 8 9 9 8 7 7 7 8 8 9 9 10 9 8 8 8 8 8 9 9
1 0 1 1 2 2 0 0 0 1 3 3 4 5 5 3 4 3 3 1 3 1 1 1 4 5 4 2 1 1 1 1 0 1 2 0 1 1 1 1 0 2 2 2 2 7 6 6 5 6 7 6 6 7 7 6 7 7 8 9 11 11 11 11 10 9 9 8 8 9 8 9 8 8 7 7 7 7 7 7 7 7 6 7 8 9 8
1 2 1 1 0 1 2 1 3 4 3 2 3 2 0 3 4 2 4 6 5 4 7 7 5 4 0 1 1 2 1 1 1 1 2 1 1 1 1 1 1 0 1 1 5 4 4 5 5 5 6 7 6 6 6 6 8 8 8 8 8 9 11 12 12 12 10 9 9 8 7 7 8 8 7 6 5 5 6 7 7 8 7 6 5 4 4
2 2 1 1 1 1 2 3 4 4 3 5 3 4 3 1 1 4 4 4 5 5 4 2 1 2 2 2 2 1 2 3 2 1 1 1 1 2 2 2 1 1 3 4 5 4 5 4 5 4 5 6 6 6 7 7 8 9 8 8 8 8 8 9 9 9 9 9 8 7 6 6 6 6 6 5 6 6 4 5 7 6 4 4 3 2 1
2 1 2 1 2 1 2 1 2 4 3 4 3 2 1 6 4 3 4 3 4 5 6 4 3 1 1 2 1 1 1 1 1 0 1 1 2 0 0 0 1 4 4 4 5 3 4 3 3 4 5 7 7 6 5 5 6 7 8 8 9 9 8 7 7 8 8 7 6 6 6 5 5 6 6 5 5 3 3 3 3 3 4 5 5 2 2
1 2 2 1 3 1 6 7 4 7 6 4 3 0 2 1 4 4 2 2 2 2 1 0 0 1 1 1 1 0 1 1 1 1 1 1 2 0 1 1 5 3 2 3 4 3 2 4 4 5 5 4 5 5 5 5 6 5 5 7 6 7 7 8 6 7 7 5 6 6 6 5 5 4 4 6 4 3 3 4 3 3 4 4 4 4 1
2 1 3 3 1 3 3 3 3 3 5 7 6 4 2 6 8 6 4 3 2 1 1 1 1 0 1 0 1 0 1 1 1 1 1 2 2 1 2 6 4 2 1 2 3 3 4 4 4 3 3 4 4 4 5 5 5 5 5 5 6 6 7 7 6 6 5 5 5 7 7 5 5 4 3 3 3 3 4 5 4 3 4 2 2 2 2
1 1 2 4 5 1 1 3 4 4 6 4 4 6 3 5 3 3 1 2 4 1 2 1 1 0 0 0 1 1 1 1 2 1 3 2 4 5 5 4 4 3 4 4 4 4 4 4 2 3 3 4 5 5 5 5 5 5 6 6 6 6 7 7 5 5 5 5 5 5 5 6 5 4 3 3 2 1 1 4 5 3 3 4 3 2 2
Wind_Direction
339 339 338 340 339 336 336 339 338 340 344 354 346 324 306 290 264 289 297 293 245 193 231 209 219 229 241 250 249 254 257 258 263 264 258 261 258 255 246 254 266 258 272 294 303 298 288 291 212 204 186 188 201 181 199 196 204 216 207 205 223 221 229 200 213 199 179 204 182 183 195 217 221 209 206 209 233 225 181 177 181 178 140 174 65 123 237
339 338 337 339 338 335 337 337 338 339 353 348 332 322 305 302 288 306 280 273 269 246 227 229 230 236 238 242 255 252 252 250 248 248 256 258 261 261 260 260 246 265 236 245 255 219 291 261 291 225 219 207 187 196 194 193 204 203 165 215 176 241 187 161 114 172 170 213 238 189 189 191 221 192 203 200 205 213 218 74 115 169 196 159 134 166 247
338 337 337 337 337 337 336 336 334 336 340 347 337 310 309 285 259 234 278 297 242 241 238 248 259 255 251 244 243 246 247 246 253 260 259 258 261 265 261 270 307 274 271 275 277 294 280 304 289 299 228 236 181 196 201 187 213 200 177 193 146 211 182 174 143 171 170 188 209 214 195 198 194 223 229 235 214 198 161 239 122 192 241 172 134 138 215
338 337 337 336 339 339 336 334 333 332 334 340 327 302 294 313 327 299 293 322 285 253 259 258 256 265 268 270 260 248 250 247 240 242 253 259 268 273 285 284 311 309 298 263 252 246 223 245 307 341 348 257 196 202 201 189 206 195 197 184 162 184 172 188 165 160 180 191 198 181 149 166 196 193 242 240 259 261 155 151 122 184 232 200 200 150 189
337 338 337 336 341 340 336 334 332 331 329 336 317 268 230 312 253 334 331 326 327 315 253 238 248 258 271 273 279 273 253 243 250 230 253 239 249 253 248 280 269 270 282 284 273 280 286 247 272 2 342 337 335 309 226 186 193 150 202 194 185 155 166 174 146 165 176 182 210 191 176 172 190 194 200 241 252 246 233 173 212 170 120 207 231 158 157
337 339 338 338 340 340 338 335 335 333 327 334 295 263 220 255 323 342 8 317 298 324 325 329 316 299 277 257 259 266 274 271 266 242 252 268 251 256 306 262 273 280 280 299 298 284 256 277 315 15 358 351 341 343 322 232 162 171 182 85 197 128 161 183 172 180 206 204 222 220 184 203 233 218 197 202 222 239 241 192 183 147 161 199 221 168 170
335 337 339 340 339 341 338 336 337 335 331 329 194 297 293 332 335 303 11 334 310 310 292 290 284 291 291 285 273 263 259 259 255 262 308 295 249 185 253 267 263 261 273 277 277 262 277 210 78 39 359 350 348 332 333 323 141 169 157 175 201 105 180 171 186 182 201 213 221 210 238 197 213 242 252 213 202 211 228 239 223 171 180 202 192 193 183
332 335 339 340 341 340 337 338 339 339 336 325 304 324 340 10 341 328 325 283 283 287 298 301 302 294 304 296 274 270 251 255 263 257 271 333 300 280 268 258 256 266 267 269 274 318 349 137 191 131 77 2 8 314 222 319 272 202 187 180 356 181 288 216 98 50 351 330 285 264 254 241 250 264 268 281 263 262 220 227 238 252 253 180 173 176 221
327 334 336 340 340 340 338 340 342 345 342 346 3 327 20 321 318 337 316 314 312 316 313 310 302 301 295 283 283 267 284 288 322 300 341 206 266 294 268 259 264 258 266 277 340 16 1 10 13 10 17 329 325 357 308 308 317 261 203 173 113 174 222 16 82 84 318 318 285 245 238 251 261 265 261 242 235 243 257 270 248 216 218 224 155 192 221
325 329 334 338 340 339 341 342 344 351 340 344 342 325 335 316 331 326 316 294 306 308 305 301 307 289 328 333 326 301 301 302 11 328 338 328 306 302 331 320 267 357 325 344 4 349 359 358 325 1 295 295 299 309 292 298 308 333 328 126 124 165 114 104 72 99 289 288 295 291 219 207 216 228 242 250 280 327 352 335 295 264 252 215 192 210 199
321 325 329 337 339 342 342 341 345 352 353 0 342 317 321 338 335 325 326 307 299 307 325 305 320 322 324 329 331 297 277 299 358 333 315 328 317 306 288 326 334 256 71 308 308 330 319 313 296 301 301 315 318 303 300 296 317 23 359 1 68 114 95 142 104 114 131 282 282 293 312 238 232 128 43 45 30 24 355 348 7 23 16 258 141 127 121
317 323 325 333 338 342 341 339 344 349 355 346 322 298 299 318 314 296 325 318 296 318 327 310 328 313 324 327 331 322 342 13 7 286 307 304 287 291 290 357 25 355 319 310 329 335 318 284 312 272 250 259 267 275 280 283 295 353 346 23 44 84 83 67 87 100 194 6 25 348 266 229 277 337 0 33 48 30 358 331 1 63 53 51 73 67 76
313 318 322 327 334 342 339 338 340 343 347 344 332 307 309 308 293 293 327 295 290 321 326 315 311 309 323 331 334 345 330 289 24 342 323 274 290 309 300 354 358 280 287 328 338 325 8 339 318 326 338 338 315 295 275 277 267 315 300 331 81 37 100 111 66 109 42 35 76 218 244 242 346 8 335 347 53 62 33 353 40 58 91 111 87 105 107
310 315 319 322 329 337 337 336 337 338 341 343 331 308 299 305 314 313 334 320 292 301 309 305 310 328 337 332 331 335 354 2 355 316 280 293 222 234 263 334 116 242 309 360 322 335 334 23 12 10 336 322 323 331 315 303 269 188 239 325 5 25 76 69 305 53 162 172 170 220 328 322 14 48 341 34 356 52 91 303 281 7 152 120 132 113 92
306 309 314 320 323 332 335 333 334 335 336 339 320 309 300 302 301 298 311 279 298 301 278 272 341 328 330 324 347 355 12 358 354 345 325 302 287 265 171 291 293 331 6 340 335 332 245 263 342 70 255 234 135 284 284 272 321 266 229 145 155 291 53 334 7 316 72 87 9 340 314 261 309 243 204 155 260 284 135 83 316 342 9 131 130 125 104
302 305 308 315 318 326 332 331 333 334 333 337 326 315 296 291 301 294 299 314 305 299 234 356 324 329 327 339 350 358 5 339 352 330 320 316 342 342 346 344 280 51 316 268 286 319 325 292 258 190 212 190 223 336 238 236 278 220 235 208 174 175 130 151 183 139 1 2 203 203 250 265 313 29 352 340 345 281 85 29 283 290 13 338 46 125 173
300 302 305 310 314 319 329 327 331 333 330 344 333 319 296 312 314 300 306 299 266 262 296 304 314 329 316 347 352 1 349 351 347 0 322 329 331 349 339 333 327 83 254 298 294 332 285 283 303 287 269 233 227 198 332 294 267 255 221 242 220 196 113 115 154 146 153 139 251 247 191 248 244 14 269 265 263 22 58 293 284 274 345 301 71 64 84
296 298 300 304 307 316 321 327 330 328 332 338 330 316 294 294 291 316 297 285 297 284 266 301 339 320 344 350 326 332 336 346 340 327 299 313 331 3 332 333 339 326 283 224 193 250 282 266 233 225 271 213 241 136 223 121 262 169 247 67 55 15 26 14 256 207 172 178 225 227 251 212 358 345 334 40 12 126 197 215 224 302 2 25 55 64 84
293 295 298 301 304 308 314 321 326 329 332 336 330 310 281 311 319 304 278 284 287 282 296 310 297 288 339 335 329 332 344 337 343 346 335 335 23 340 312 271 317 329 357 338 343 272 247 250 261 271 252 276 227 246 106 203 249 165 132 254 317 121 118 204 70 8 327 292 202 218 160 241 259 305 14 2 294 329 187 227 275 12 27 23 61 62 50
293 294 296 299 303 307 312 318 323 327 327 334 340 311 294 296 292 301 290 285 304 286 292 281 267 291 344 325 330 338 339 337 18 339 346 311 331 342 336 13 356 337 339 0 304 232 235 259 241 187 237 265 355 358 356 315 76 342 261 126 134 207 119 134 121 46 355 315 301 324 265 283 340 354 11 5 98 227 212 24 16 17 35 52 47 54 41
292 296 297 301 301 303 308 311 321 322 324 330 340 323 310 300 313 318 315 323 313 308 290 276 322 320 309 300 298 305 301 297 323 328 315 278 317 340 20 349 335 333 348 344 333 332 351 328 333 289 247 68 304 9 46 357 30 24 11 32 70 347 20 305 351 105 160 143 72 219 269 281 253 137 122 245 152 172 358 343 25 9 37 49 55 41 48
292 294 297 299 300 301 303 310 317 318 321 327 331 312 291 307 321 317 325 321 283 264 269 293 292 284 281 272 269 273 279 293 299 317 324 308 305 293 250 275 308 344 17 323 328 335 15 328 282 348 11 359 329 66 302 35 15 301 17 29 66 303 142 185 163 259 131 186 155 102 349 318 357 103 130 119 129 102 133 82 82 54 21 34 52 46 39
288 293 298 298 300 301 301 308 313 316 318 325 332 312 303 311 310 314 304 298 284 267 266 265 265 266 263 260 248 246 268 304 292 270 252 284 303 284 331 15 0 322 11 32 350 286 299 326 290 294 293 10 26 22 38 99 111 349 4 309 159 201 183 202 89 326 336 61 45 28 94 360 18 28 58 83 68 56 54 59 52 16 40 46 38 30 32
287 293 296 297 297 299 301 302 308 312 317 320 322 310 302 304 296 306 317 299 295 313 297 250 251 242 248 294 206 205 220 235 230 312 26 61 273 294 196 82 337 305 22 341 349 300 303 290 272 302 283 293 307 76 77 52 100 214 152 327 350 66 64 80 81 265 341 334 323 346 62 47 41 30 39 44 48 47 41 53 64 54 37 37 35 38 36
283 285 291 298 298 298 297 300 306 310 314 318 322 301 293 290 296 329 327 325 331 347 311 315 291 263 308 57 96 239 218 214 112 207 224 186 204 246 290 333 331 311 302 309 315 291 269 288 312 312 330 274 343 56 318 109 52 244 104 233 146 343 355 71 51 75 118 190 274 358 58 95 66 44 48 34 24 32 30 50 58 51 37 38 43 37 36
284 282 287 291 296 297 297 300 305 308 310 318 316 303 299 294 302 306 292 263 273 265 276 288 294 320 10 342 310 195 111 189 260 227 213 240 215 225 285 332 299 301 290 279 261 264 280 283 301 288 291 289 321 186 196 216 160 256 98 142 169 169 128 98 284 99 266 82 13 336 27 35 29 41 31 29 28 42 41 43 43 34 33 25 33 35 27
281 286 285 290 294 296 295 298 305 307 312 312 309 293 282 278 279 279 277 295 320 274 217 267 308 309 344 329 300 294 254 233 228 248 229 213 238 231 230 252 298 304 293 292 276 258 242 266 305 277 304 323 305 314 151 45 48 134 179 168 192 100 97 150 106 76 54 210 216 208 329 2 326 11 20 19 15 18 58 47 44 34 35 33 23 22 7
282 282 284 287 289 291 294 296 300 309 309 313 300 283 267 269 269 265 275 276 278 299 308 301 298 301 316 278 267 260 210 201 237 244 242 230 211 217 250 257 253 272 283 321 323 319 314 274 260 263 238 56 349 304 262 156 216 244 173 17 63 109 166 145 151 144 195 169 96 130 152 153 258 301 335 24 47 360 49 56 41 27 17 36 21 5 351
277 281 283 285 284 287 291 297 305 308 316 314 298 287 272 249 246 262 277 287 12 321 302 286 275 274 265 336 330 207 183 205 215 232 243 259 237 204 200 204 219 261 308 286 272 278 262 276 301 307 62 240 159 281 347 359 164 124 86 87 69 73 123 110 123 118 97 102 123 108 93 125 263 334 335 19 22 12 40 47 40 22 0 17 355 340 329
270 274 281 284 284 285 292 299 304 309 321 313 293 276 272 154 95 67 13 7 19 3 300 321 307 277 334 314 265 236 191 191 221 230 234 251 261 231 194 187 225 211 242 265 314 300 321 294 276 287 87 358 319 312 333 318 15 59 92 91 94 73 61 59 64 86 117 113 135 127 145 196 225 273 49 32 26 28 30 20 17 355 335 334 322 319 309
269 273 274 277 283 287 292 296 302 311 312 298 303 290 240 175 93 28 11 359 5 343 302 271 269 305 300 242 252 250 228 202 201 219 232 219 213 225 235 208 200 195 218 234 229 248 274 282 319 333 6 23 40 340 32 2 79 110 110 104 89 91 89 87 73 77 111 38 350 114 141 67 25 48 40 19 34 3 1 352 341 319 312 320 307 299 292
263 265 268 276 281 287 288 293 300 309 294 276 267 273 341 339 308 307 317 322 332 287 267 296 294 257 262 267 224 235 228 214 213 213 232 196 208 195 215 184 237 183 195 230 230 358 282 288 298 313 14 311 1 9 344 329 72 129 102 91 92 88 85 80 84 82 68 92 270 258 59 50 47 61 27 350 338 343 357 325 305 326 321 309 287 279 277
258 264 272 278 283 285 289 291 296 298 281 284 293 283 272 265 262 261 265 271 237 244 262 276 265 299 276 301 275 201 213 197 220 192 227 178 221 166 204 178 244 274 135 99 192 212 239 221 243 270 189 165 73 16 356 295 307 348 5 83 107 104 93 87 94 102 75 56 59 81 56 37 1 353 5 350 13 17 27 18 8 357 351 347 344 346 358
259 268 276 283 285 290 291 293 293 287 276 266 271 248 236 230 235 240 231 217 260 263 260 260 269 259 276 308 289 147 194 206 212 183 220 192 185 165 183 187 158 202 152 179 189 214 276 260 228 271 116 350 56 110 231 282 292 304 358 349 137 142 158 147 112 86 70 63 56 53 42 22 359 14 31 22 3 13 27 20 6 353 346 334 340 342 346
260 268 278 284 288 294 294 287 286 263 276 269 259 254 92 288 26 174 170 204 239 200 195 226 244 290 290 273 236 176 214 219 249 183 211 180 250 232 169 166 100 159 199 222 286 224 247 232 189 193 198 111 105 86 247 231 230 252 223 34 39 96 111 84 69 76 60 48 50 41 23 23 17 18 14 17 19 12 18 3 346 339 330 339 338 330 329
256 271 280 290 298 290 292 266 225 253 238 249 271 83 82 110 156 212 204 217 248 320 307 286 266 263 282 295 345 88 333 262 272 158 116 145 222 222 272 175 112 224 152 145 213 179 231 214 62 358 162 151 189 197 216 229 333 82 64 61 46 60 65 74 79 63 55 50 46 36 25 21 38 22 359 5 1 359 355 337 325 346 342 323 306 300 304
259 272 286 293 289 270 260 251 221 204 244 299 34 323 217 220 240 232 214 239 202 226 267 303 286 254 245 306 297 355 5 290 4 297 143 193 199 144 227 99 245 140 144 218 219 218 195 2 258 311 80 165 134 159 71 38 36 37 37 54 58 54 51 51 52 57 54 43 40 26 25 12 12 6 3 351 345 341 336 334 339 327 304 308 321 344 338
260 292 294 269 264 279 276 238 220 333 234 248 324 295 173 155 206 192 181 219 189 182 219 220 253 266 274 271 291 17 291 253 144 293 214 338 359 221 183 207 239 76 208 188 167 145 136 86 80 18 280 154 335 41 59 59 61 59 54 45 46 50 50 47 48 50 45 38 27 19 10 7 357 354 358 348 344 337 331 322 314 307 321 338 343 336 338
215 242 238 261 286 276 296 312 352 332 313 279 221 269 209 199 230 214 194 193 146 207 210 221 247 225 262 275 259 80 51 313 296 330 16 4 51 329 39 337 343 13 328 14 323 325 125 154 137 160 254 72 44 57 75 73 63 55 51 47 46 46 50 49 44 48 53 59 30 25 24 3 345 342 337 329 325 318 310 315 318 324 330 330 325 331 323
218 212 227 229 226 266 306 288 86 312 257 261 201 241 269 197 213 253 148 174 197 219 189 230 237 235 232 257 319 321 349 358 17 355 341 328 78 344 294 296 15 59 278 146 305 318 316 130 185 136 45 33 52 36 52 65 66 56 52 42 37 36 38 39 23 34 38 36 21 6 358 348 344 331 327 322 321 317 318 309 306 307 308 303 299 296 295
215 248 251 284 344 338 290 305 299 250 255 244 220 209 254 232 199 277 266 207 207 203 197 255 197 228 248 240 217 31 340 303 283 332 285 322 324 250 286 69 4 40 301 67 285 229 104 333 58 56 41 18 34 39 46 47 42 42 36 41 46 38 18 29 357 12 7 6 326 320 300 315 325 323 322 313 311 312 316 316 309 299 292 287 285 290 298
20 294 318 280 269 281 296 261 239 257 224 315 294 274 227 260 215 197 232 228 204 195 164 223 226 209 210 128 40 48 51 350 286 315 325 353 342 7 1 290 175 308 1 142 266 71 274 103 72 74 41 36 38 34 32 35 32 24 22 15 17 12 4 1 347 351 349 339 331 330 324 325 320 312 302 303 300 302 301 299 305 310 310 312 314 306 299
280 255 224 308 288 277 24 313 179 269 95 349 36 343 283 274 210 242 199 229 332 306 145 201 307 199 323 74 91 26 133 271 9 327 341 332 273 262 318 324 286 305 26 250 111 182 72 64 88 62 15 41 35 34 27 25 18 22 22 13 10 11 9 0 355 347 354 350 342 338 333 330 324 320 318 311 309 304 302 295 296 314 338 340 337 345 346
268 281 268 295 317 269 204 23 275 288 281 205 158 209 217 249 197 230 252 195 133 304 172 166 289 339 69 4 39 171 116 54 38 278 230 184 255 244 271 280 325 65 267 289 218 70 76 67 54 44 34 26 21 21 21 14 5 5 0 5 1 3 359 348 347 341 335 332 330 324 321 320 322 315 309 306 320 335 334 327 334 335 330 337 344 337 332
309 125 274 328 12 315 62 57 287 171 225 187 227 261 233 250 140 195 236 67 116 261 51 52 212 247 71 8 295 93 315 241 40 341 339 35 326 281 271 35 324 318 341 344 311 88 95 75 50 33 23 19 11 12 8 9 2 359 353 347 353 351 347 348 339 333 326 327 326 329 325 328 326 328 333 338 336 327 323 318 330 333 331 336 330 328 326
269 237 181 97 6 299 251 107 167 256 256 213 217 228 276 334 65 326 357 231 142 213 246 42 69 64 75 70 57 9 329 319 113 356 325 28 47 347 37 231 265 356 355 323 39 63 58 61 42 43 16 6 4 6 356 1 347 352 346 354 346 346 344 337 334 334 331 331 334 333 328 327 323 326 319 318 318 319 314 316 319 318 331 327 324 320 317
284 261 257 266 140 205 254 262 231 227 275 228 206 260 135 61 320 10 26 7 21 18 52 49 42 57 141 30 49 324 294 280 358 27 346 355 340 333 42 31 27 95 326 343 64 55 52 45 46 32 12 3 2 0 359 354 352 356 358 347 340 342 345 345 337 332 333 328 322 317 317 315 312 307 311 314 315 314 314 320 333 335 326 320 311 315 332
317 284 263 62 271 207 222 249 254 256 265 305 336 2 349 189 187 58 31 9 2 7 29 18 18 22 14 14 288 137 77 350 25 9 29 358 315 32 358 349 356 354 28 48 65 42 51 38 38 21 9 354 1 2 3 357 353 351 346 337 337 345 352 338 330 322 318 314 313 307 303 307 315 318 313 313 312 310 339 351 333 322 316 291 272 259 339
265 298 303 278 303 275 226 206 220 268 272 270 274 267 90 86 62 29 22 23 31 356 357 3 40 1 135 261 102 49 355 332 23 259 274 21 42 287 249 256 210 94 46 23 41 37 42 46 37 30 7 358 352 360 356 341 339 337 341 339 339 339 339 329 326 331 326 324 321 320 323 331 321 308 305 306 301 326 356 322 326 318 303 297 281 265 97
275 260 231 261 282 222 358 316 5 353 330 324 276 228 348 117 108 74 13 30 360 324 340 342 221 253 42 345 271 293 106 221 206 145 160 163 238 216 253 45 50 60 337 4 58 44 39 41 30 17 356 346 347 346 339 334 337 341 332 333 329 324 322 325 337 340 336 330 328 327 318 314 309 318 326 325 327 343 322 306 300 306 307 307 313 309 29
214 247 277 301 337 309 334 19 8 287 325 314 344 353 358 42 52 39 346 351 314 338 292 240 263 155 117 345 337 51 289 115 172 187 229 215 208 218 38 62 70 76 247 3 72 67 57 52 27 4 331 339 331 334 327 326 328 321 320 323 326 322 317 321 337 339 335 340 337 340 340 326 324 320 315 312 316 330 324 309 305 307 302 298 298 312 346
249 271 288 288 264 293 41 19 18 297 289 325 10 310 29 81 64 81 59 287 278 232 116 48 284 258 78 35 334 354 16 351 326 235 193 52 1 41 61 59 55 22 6 359 27 51 69 50 34 354 340 329 338 329 321 320 321 318 318 323 325 324 320 317 330 330 336 343 345 345 331 323 323 318 303 321 315 309 313 317 316 312 309 308 321 344 357